Hourly Data Report for March 12, 2017

All times are specified in Local Standard Time (LST). Add 1 hour to adjust for Daylight Saving Time where and when it is observed.

TORONTO INTL A
ONTARIO

43°40'36.000" N
79°37'50.000" W
173.40 m
6158731
71624
YYZ

Download Data

Hourly Data (March 2017)
Hourly Data Report for March 12, 2017
TIME Temp Definition
°C
Dew Point Definition
°C
Rel Hum Definition
%
Wind Dir Definition
10's deg

Wind Spd Definition
km/h
Visibility Definition
km
Stn Press Definition
kPa
Hmdx Definition


Wind Chill Definition


Weather Definition


00:00 -10.7 -16.1 65 5 12 24.1 100.66   -17 LegendNANA
01:00 -11.0 -16.4 65 3 16 24.1 100.66   -18 Cloudy
02:00 -11.5 -18.0 59 2 22 24.1 100.71   -20 LegendNANA
03:00 -11.7 -19.0 55 2 18 24.1 100.71   -20 LegendNANA
04:00 -12.3 -20.0 53 2 23 24.1 100.75   -21 Mainly Clear
05:00 -13.1 -23.5 42 2 16 24.1 100.79   -21 LegendNANA
06:00 -13.4 -23.8 42 36 14 24.1 100.81   -21 LegendNANA
07:00 -13.1 -23.2 43 35 16 24.1 100.84   -21 Mostly Cloudy
08:00 -12.7 -21.8 47 1 16 24.1 100.87   -20 LegendNANA
09:00 -11.9 -21.1 47 36 12 24.1 100.91   -18 LegendNANA
10:00 -11.0 -20.0 48 28 13 24.1 100.86   -17 Mainly Clear
11:00 -9.1 -19.0 45 26 3 24.1 100.86   -11 LegendNANA
12:00 -8.1 -18.1 45 31 4 24.1 100.83   -10 LegendNANA
13:00 -6.7 -15.7 49 29 25 24.1 100.84   -15 Mostly Cloudy
14:00 -5.4 -17.3 39 30 29 24.1 100.78   -13 LegendNANA
15:00 -5.2 -18.4 35 28 30 24.1 100.78   -13 LegendNANA
16:00 -5.1 -17.4 38 29 33 24.1 100.78   -13 Mainly Clear
17:00 -5.6 -17.5 39 29 30 24.1 100.83   -14 LegendNANA
18:00 -6.8 -17.4 43 28 25 24.1 100.90   -15 LegendNANA
19:00 -7.5 -17.3 46 30 23 24.1 100.99   -15 Clear
20:00 -8.3 -17.2 49 30 28 24.1 100.98   -17 LegendNANA
21:00 -8.8 -17.2 51 32 14 24.1 100.99   -15 LegendNANA
22:00 -9.3 -17.2 53 29 16 24.1 101.03   -16 Clear
23:00 -10.8 -16.9 61 27 10 24.1 101.04   -16 LegendNANA

Notes on Data Quality.

Legend

  • E = Estimated
  • M = Missing
  • NA = Not Available*
  • [empty] = Indicates an unobserved value
Date modified: